Regional Weather Roundup
Issued by NWS Jackson, KY

Home | Current Version | Previous Version | Text Only | Print | Product List | Glossary Off
Versions: 1 2 3 4 5 6 7 8 9 10 11 12 13 14 15 16 17 18 19 20 21 22 23 24 25 26 27 28 29 30 31 32 33 34 35 36 37 38 39 40 41 42 43 44 45 46 47 48 49 50

000
ASUS43 KJKL 221919
RWRJKL

EAST KENTUCKY HOURLY WEATHER ROUNDUP
NATIONAL WEATHER SERVICE JACKSON KY
300 PM EDT MON SEP 22 2014

NOTE: "FAIR" INDICATES FEW OR NO CLOUDS BELOW 12,000 FEET WITH
NO SIGNIFICANT WEATHER AND/OR OBSTRUCTIONS TO VISIBILITY.

* THESE REPORTS ARE NOT UNDER NWS QUALITY CONTROL AND MAY NOT
  REPORT WEATHER SUCH AS PRECIPITATION AND FOG.

KYZ079-080-083-085-087-088-110-112-115-119-120-222000
...EASTERN KENTUCKY...

CITY           SKY/WX    TMP DP  RH WIND       PRES   REMARKS
JACKSON        PTSUNNY   65  47  52 VRB5      30.19F
LONDON         SUNNY     67  47  48 VRB7      30.20F
SOMERSET*      SUNNY     66  45  45 N7        30.21F
MONTICELLO*    SUNNY     71  49  45 NW10      30.21F
WILLIAMSBURG*  SUNNY     66  48  52 NE9       30.19
MIDDLESBORO*   MOSUNNY   67  50  53 NE9       30.17F
HARLAN APT*    PTCLDY    64  46  52 MISG      30.18F
HAZARD APT*    MOCLDY    64  50  59 CALM      30.19
BLACK MTN*       N/A     55  48  76 N5          N/A
PIKEVILLE APT* MOSUNNY   63  48  59 NE3       30.19S
BIG SANDY*     CLOUDY    64  51  61 N8        30.19S
MOREHEAD APT*  CLEAR     63  46  55 VRB6      30.23S
$$

KYZ035-036-041-042-044-050-067-078-099-222000
...CENTRAL KENTUCKY...

CITY           SKY/WX    TMP DP  RH WIND       PRES   REMARKS
MT STERLING*   MOSUNNY   64  48  55 NE5       30.22F
FLEMING/MASON* MOSUNNY   64  46  52 N5        30.22S
DANVILLE*      SUNNY     68  43  40 NW6       30.22S
RICHMOND*      SUNNY     64  43  45 NW5       30.20S
LEXINGTON      SUNNY     66  45  46 N9        30.22S
FRANKFORT      SUNNY     64  43  46 W3        30.21F
$$

KYZ091>093-OHZ055-061-077-WVZ005-015-034-035-042-222000
...SOUTHERN OHIO/WEST VIRGINIA...

CITY           SKY/WX    TMP DP  RH WIND       PRES   REMARKS
COVINGTON      SUNNY     63  42  46 NW6       30.23F
COLUMBUS       SUNNY     64  38  38 VRB7      30.20F
DAYTON         MOSUNNY   62  41  46 VRB5      30.23F
WILMINGTON     SUNNY     62  39  42 VRB3      30.21F
HUNTINGTON     PTSUNNY   66  48  52 NW8       30.19S
CHARLESTON     PTSUNNY   65  48  54 VRB5      30.18F
PINEVILLE*     PTSUNNY   64  53  65 MISG      30.23S
BECKLEY        MOSUNNY   60  44  55 CALM      30.18S
BLUEFIELD      PTSUNNY   59  45  59 NW8       30.19R
$$

VAZ002-007-008-TNZ017-027-036-066-071-222000
...SOUTHWEST VIRGINIA/EAST TENNESSEE...

CITY           SKY/WX    TMP DP  RH WIND       PRES   REMARKS
WISE*          PTSUNNY   61  45  55 N7        30.21S
JONESVILLE*    CLEAR     68  48  49 NW6       30.18F
ABINGDON*      MOSUNNY   67  48  50 NE6       30.16S
BRISTOL        MOSUNNY   70  46  42 N8        30.14F
KNOXVILLE      MOSUNNY   72  45  37 N5        30.13F
OAK RIDGE      SUNNY     73  47  39 E8        30.15F
CROSSVILLE     SUNNY     70  45  40 N9        30.19F
NASHVILLE      MOSUNNY   74  47  38 N9G18     30.19F
$$

...KEY TO REMARKS...
VSB - VISIBILITY IN MILES
WCI - WIND CHILL INDEX
HX  - HEAT INDEX

$$


USA.gov is the U.S. government's official web portal to all federal, state and local government web resources and services.